DW0529 Weather Reports


Display with metric or nautical units.
time (UTC)temp
F
wind
direction
speed
MPH
gust
MPH
rain 1hr
in
rain 24hr
in
rain mn
in
humidity
%
barometer
mb
20210802084547 69 306 0.0 0.0 0.00 0.00 0.00 45 968.7
20210802083600 70 306 0.0 0.0 0.00 0.00 0.00 44 968.7
20210802082623 70 306 0.0 0.0 0.00 0.00 0.00 42 968.7
20210802081633 70 306 0.0 0.0 0.00 0.00 0.00 44 968.8
20210802080613 70 306 0.0 0.0 0.00 0.00 0.00 44 968.6
20210802075554 70 306 0.0 0.0 0.00 0.00 0.00 44 968.7
20210802074611 71 306 0.0 0.0 0.00 0.00 0.00 40 968.7
20210802073555 72 306 0.0 0.0 0.00 0.00 0.00 38 968.8
20210802072612 73 306 0.0 0.0 0.00 0.00 0.00 36 968.8
20210802071613 74 306 0.0 0.0 0.00 0.00 0.00 36 968.7
20210802070550 75 306 0.0 2.0 0.00 0.00 0.00 35 968.8
20210802065516 76 306 0.0 2.0 0.00 0.00 0.00 27 968.6
20210802064446 78 227 0.0 0.0 0.00 0.00 0.00 21 968.7
20210802063418 79 227 0.0 0.0 0.00 0.00 0.00 19 968.8
20210802062403 79 227 0.0 0.0 0.00 0.00 0.00 17 968.8
20210802061427 80 227 0.0 0.0 0.00 0.00 0.00 18 968.8
20210802060416 80 227 0.0 1.0 0.00 0.00 0.00 18 968.9
20210802055425 80 227 0.0 3.0 0.00 0.00 0.00 18 968.9
20210802054444 81 228 0.0 3.0 0.00 0.00 0.00 18 968.9
20210802053409 80 234 0.0 1.0 0.00 0.00 0.00 18 969.0
20210802052415 80 234 0.0 4.0 0.00 0.00 0.00 18 969.0
20210802051426 80 302 0.0 4.0 0.00 0.00 0.00 20 969.0
20210802050427 79 336 0.0 3.0 0.00 0.00 0.00 20 968.9
20210802045443 79 329 0.0 0.0 0.00 0.00 0.00 22 968.8
20210802044434 79 329 0.0 2.0 0.00 0.00 0.00 23 968.8
20210802043438 79 286 0.0 1.0 0.00 0.00 0.00 23 968.7
20210802042419 79 275 0.0 2.0 0.00 0.00 0.00 24 968.5
20210802041431 80 341 1.0 2.0 0.00 0.00 0.00 24 968.5
20210802040444 80 342 0.0 3.0 0.00 0.00 0.00 24 968.5
20210802035449 80 341 1.0 4.0 0.00 0.00 0.00 23 968.2
20210802034427 81 340 2.0 4.0 0.00 0.00 0.00 22 968.3
20210802033412 81 344 1.0 3.0 0.00 0.00 0.00 22 968.3
20210802032417 82 339 1.0 5.0 0.00 0.00 0.00 21 968.1
20210802031408 83 340 3.0 5.0 0.00 0.00 0.00 20 968.1
20210802030420 83 344 2.0 5.0 0.00 0.00 0.00 19 968.0
20210802025408 83 335 2.0 4.0 0.00 0.00 0.00 18 967.9
20210802024414 84 342 1.0 3.0 0.00 0.00 0.00 19 967.9
20210802023423 85 346 1.0 3.0 0.00 0.00 0.00 19 967.9
20210802022411 85 344 1.0 3.0 0.00 0.00 0.00 17 967.9
20210802021353 85 348 1.0 4.0 0.00 0.00 0.00 17 967.9
20210802020350 83 344 0.0 4.0 0.00 0.00 0.00 32 967.8
20210802015341 82 221 0.0 0.0 0.00 0.00 0.00 41 967.6
20210802014310 82 221 0.0 0.0 0.00 0.00 0.00 41 967.7
20210802013317 82 220 0.0 1.0 0.00 0.00 0.00 40 967.7
20210802012245 82 221 0.0 0.0 0.00 0.00 0.00 41 967.7
20210802011227 81 182 0.0 1.0 0.00 0.00 0.00 41 967.7
20210802010156 81 181 0.0 2.0 0.00 0.00 0.00 42 967.7
20210802005148 81 121 0.0 3.0 0.00 0.00 0.00 42 967.7
20210802004148 81 169 0.0 3.0 0.00 0.00 0.00 43 967.8
20210802003147 82 186 1.0 5.0 0.00 0.00 0.00 40 967.9
20210802002119 82 157 0.0 7.0 0.00 0.00 0.00 41 968.0
20210802001105 82 218 1.0 7.0 0.00 0.00 0.00 39 967.9
20210802000038 82 221 2.0 7.0 0.00 0.00 0.00 39 967.9
20210801235005 82 169 1.0 6.0 0.00 0.00 0.00 41 968.0
20210801233951 81 222 1.0 6.0 0.00 0.00 0.00 42 968.0
20210801232946 82 89 0.0 5.0 0.00 0.00 0.00 40 968.0
20210801231938 83 199 1.0 5.0 0.00 0.00 0.00 39 968.0
20210801230918 85 185 1.0 5.0 0.00 0.00 0.00 36 968.0
20210801225934 86 185 0.0 4.0 0.00 0.00 0.00 35 968.0
20210801224941 86 196 1.0 5.0 0.00 0.00 0.00 35 968.1
20210801223952 87 215 1.0 6.0 0.00 0.00 0.00 34 968.3
20210801222952 86 153 2.0 6.0 0.00 0.00 0.00 34 968.3
20210801221942 86 227 3.0 6.0 0.00 0.00 0.00 34 968.3
20210801220942 86 178 2.0 7.0 0.00 0.00 0.00 34 968.5
20210801215941 87 225 2.0 7.0 0.00 0.00 0.00 34 968.5
20210801215005 87 121 2.0 5.0 0.00 0.00 0.00 34 968.6
20210801213959 88 215 1.0 4.0 0.00 0.00 0.00 34 968.6
20210801213023 88 259 1.0 5.0 0.00 0.00 0.00 31 968.6
20210801212004 87 218 2.0 8.0 0.00 0.00 0.00 31 968.7
20210801210946 87 148 2.0 8.0 0.00 0.00 0.00 29 968.8
20210801210000 86 180 2.0 5.0 0.00 0.00 0.00 32 968.8
20210801205026 87 242 2.0 6.0 0.00 0.00 0.00 31 968.9
20210801203955 88 171 2.0 6.0 0.00 0.00 0.00 29 969.0
20210801203001 87 188 1.0 6.0 0.00 0.00 0.00 31 969.1
20210801202011 86 207 2.0 6.0 0.00 0.00 0.00 34 969.2
20210801201027 87 204 1.0 5.0 0.00 0.00 0.00 34 969.2
20210801200017 86 237 2.0 7.0 0.00 0.00 0.00 35 969.3
20210801195022 86 178 2.0 7.0 0.00 0.00 0.00 36 969.4
20210801194044 84 214 3.0 7.0 0.00 0.00 0.00 41 969.4
20210801193015 85 211 2.0 6.0 0.00 0.00 0.00 42 969.4
20210801191952 86 227 2.0 6.0 0.00 0.00 0.00 42 969.5
20210801191000 86 169 1.0 5.0 0.00 0.00 0.00 42 969.6
20210801185925 85 323 1.0 5.0 0.00 0.00 0.00 38 969.7
20210801184931 85 153 1.0 4.0 0.00 0.00 0.00 39 969.7
20210801183933 85 219 1.0 5.0 0.00 0.00 0.00 37 969.8
20210801182938 84 180 1.0 5.0 0.00 0.00 0.00 39 969.9
20210801181917 84 218 0.0 5.0 0.00 0.00 0.00 40 969.9
20210801180844 83 123 0.0 5.0 0.00 0.00 0.00 41 970.1
20210801175903 82 217 1.0 5.0 0.00 0.00 0.00 43 970.1
20210801174915 81 150 0.0 4.0 0.00 0.00 0.00 45 970.2
20210801173857 81 219 1.0 5.0 0.00 0.00 0.00 45 970.1
20210801172831 80 220 0.0 5.0 0.00 0.00 0.00 46 970.1
20210801171844 79 148 1.0 5.0 0.00 0.00 0.00 47 970.1
20210801170849 78 330 0.0 3.0 0.00 0.00 0.00 48 970.1
20210801165909 77 232 0.0 2.0 0.00 0.00 0.00 49 970.2
20210801164852 76 243 0.0 1.0 0.00 0.00 0.00 51 970.1
20210801163838 75 324 0.0 2.0 0.00 0.00 0.00 50 970.1
20210801162824 74 338 0.0 2.0 0.00 0.00 0.00 51 970.3
20210801161817 74 238 0.0 2.0 0.00 0.00 0.00 53 970.3
20210801160832 72 250 0.0 1.0 0.00 0.00 0.00 54 970.2
20210801155802 72 230 0.0 1.0 0.00 0.00 0.00 57 970.2
20210801154745 71 204 0.0 3.0 0.00 0.00 0.00 58 970.3
20210801153722 70 249 0.0 0.0 0.00 0.00 0.00 58 970.3
20210801152648 70 249 0.0 0.0 0.00 0.00 0.00 58 970.1
20210801151635 70 249 0.0 0.0 0.00 0.00 0.00 57 970.0
20210801150630 69 249 0.0 1.0 0.00 0.00 0.00 57 970.0
20210801145607 69 296 0.0 0.0 0.00 0.00 0.00 58 970.0
20210801144554 68 296 0.0 0.0 0.00 0.00 0.00 59 969.9
20210801143602 68 296 0.0 0.0 0.00 0.00 0.00 61 969.8
20210801142621 67 296 0.0 0.0 0.00 0.00 0.00 61 969.7
20210801141619 67 296 0.0 0.0 0.00 0.00 0.00 61 969.6
20210801140554 66 296 0.0 0.0 0.00 0.00 0.00 62 969.5
20210801135553 66 296 0.0 0.0 0.00 0.00 0.00 63 969.4
20210801134539 66 296 0.0 0.0 0.00 0.00 0.00 63 969.4
20210801133510 66 296 0.0 0.0 0.00 0.00 0.00 64 969.4
20210801132450 66 296 0.0 0.0 0.00 0.00 0.00 62 969.3
20210801131430 66 296 0.0 0.0 0.00 0.00 0.00 60 969.3
20210801130405 66 296 0.0 0.0 0.00 0.00 0.00 59 969.2
20210801125424 66 296 0.0 0.0 0.00 0.00 0.00 59 969.0
20210801124422 67 296 0.0 0.0 0.00 0.00 0.00 58 968.9
20210801123426 68 296 0.0 0.0 0.00 0.00 0.00 57 968.8
20210801122406 68 340 0.0 0.0 0.00 0.00 0.00 55 968.6
20210801121333 68 340 0.0 0.0 0.00 0.00 0.00 56 968.6
20210801120347 68 340 0.0 0.0 0.00 0.00 0.00 58 968.6
20210801115350 69 340 0.0 0.0 0.00 0.00 0.00 58 968.6
20210801114322 69 340 0.0 0.0 0.00 0.00 0.00 54 968.4
20210801113318 69 340 0.0 0.0 0.00 0.00 0.00 45 968.4
20210801112258 69 340 0.0 0.0 0.00 0.00 0.00 48 968.4
20210801111231 69 340 0.0 0.0 0.00 0.00 0.00 51 968.3
20210801110243 69 340 0.0 0.0 0.00 0.00 0.00 50 968.3
20210801105214 69 340 0.0 0.0 0.00 0.00 0.00 50 968.2
20210801104150 68 340 0.0 0.0 0.00 0.00 0.00 52 968.1
20210801103146 67 340 0.0 0.0 0.00 0.00 0.00 58 968.1
20210801102119 67 340 0.0 0.0 0.00 0.00 0.00 63 968.1
20210801101118 67 340 0.0 0.0 0.00 0.00 0.00 62 968.2
20210801100138 67 340 0.0 0.0 0.00 0.00 0.00 63 968.1
20210801095115 66 340 0.0 0.0 0.00 0.00 0.00 66 968.1
20210801094135 66 340 0.0 0.0 0.00 0.00 0.00 67 968.1
20210801093101 66 340 0.0 0.0 0.00 0.00 0.00 68 968.1
20210801092117 67 340 0.0 0.0 0.00 0.00 0.00 67 968.2
20210801091121 67 340 0.0 0.0 0.00 0.00 0.00 67 968.2
20210801090101 67 340 0.0 0.0 0.00 0.00 0.00 66 968.2
20210801085036 67 340 0.0 0.0 0.00 0.00 0.00 66 968.3